Regional Weather Roundup
Issued by NWS

Home | Current Version | Previous Version | Graphics & Text | Print | Product List | Glossary On
Versions: 1 2 3 4 5 6 7 8 9 10 11 12 13 14 15 16 17 18 19 20 21 22 23 24 25 26 27 28 29 30 31 32 33 34 35 36 37 38 39 40 41 42 43 44 45 46 47 48 49 50
000
ASUS43 KMKX 281921
RWRWI

WISCONSIN REGIONAL WEATHER ROUNDUP
NATIONAL WEATHER SERVICE MILWAUKEE/SULLIVAN WI
200 PM CDT SUN AUG 28 2016

NOTE: "FAIR" INDICATES FEW OR NO CLOUDS BELOW 12,000 FEET WITH NO
SIGNIFICANT WEATHER AND/OR OBSTRUCTIONS TO VISIBILITY.

WIZ001-002-006>008-014>016-023>028-282000-
NORTHWEST WISCONSIN

CITY           SKY/WX    TMP DP  RH WIND       PRES   REMARKS
SUPERIOR ARPT  CLOUDY    71  64  78 CALM      30.17S
ASHLAND        MOSUNNY   75  64  68 S3        30.18F
HAYWARD        CLOUDY    74  62  66 S8        30.19F
SIREN          CLOUDY    73  65  76 S6        30.17F
CUMBERLAND     CLOUDY    68  64  88 SE6       30.20S
RICE LAKE      CLOUDY    71  65  81 E3        30.21S
CHETEK         NOT AVBL
LADYSMITH      MOSUNNY   74  64  71 SW5       30.22S
EAU CLAIRE     CLOUDY    78  67  68 S8        30.17S HX  80
MENOMONIE      CLOUDY    78  67  71 SE8       30.18S
NEW RICHMOND   MOSUNNY   75  69  80 E9        30.16F
OSCEOLA        MOSUNNY   76  72  88 SE9       30.18F
$$

WIZ003>005-009-010-017-018-282000-
NORTH CENTRAL WISCONSIN

CITY           SKY/WX    TMP DP  RH WIND       PRES   REMARKS
MANITOWISH WTR NOT AVBL
ARBOR VITAE    MOSUNNY   72  62  70 S5        30.22S
WOODRUFF       MOSUNNY   72  62  70 S5        30.22S
RHINELANDER    SUNNY     76  61  59 S6        30.22F
EAGLE RIVER    CLOUDY    74  56  52 CALM      30.22S
LAND O LAKES   MOSUNNY   74  58  56 S5        30.23R
PHILLIPS       PTSUNNY   72  63  73 W5        30.21S
TOMAHAWK       SUNNY     75  60  58 CALM      30.21S
MEDFORD        PTSUNNY   73  65  74 S8        30.22S
MERRILL        PTSUNNY   75  64  67 SW6       30.22S
$$

WIZ029-030-035-036-043>047-282000-
CENTRAL WISCONSIN

CITY           SKY/WX    TMP DP  RH WIND       PRES   REMARKS
WAUSAU         MOSUNNY   73  61  65 S7        30.21F
MOSINEE        NOT AVBL
MARSHFIELD     MOSUNNY   76  63  64 S5        30.21F
STEVENS POINT  PTSUNNY   74  61  64 CALM      30.22F
WAUPACA        MOSUNNY   81  64  55 S5        30.21F HX  82
WAUTOMA        PTSUNNY   78  65  63 CALM      30.21F HX  80
WISC RAPIDS    MOSUNNY   78  63  59 VRB5      30.22F HX  80
CAMP DOUGLAS   PTSUNNY   77  66  69 S9        30.20F
$$

WIZ011>013-019>022-031-037>040-048>050-282000-
NORTHEAST WISCONSIN

CITY           SKY/WX    TMP DP  RH WIND       PRES   REMARKS
ANTIGO         MOSUNNY   75  61  62 S7        30.22F
SHAWANO        SUNNY     80  62  55 W6        30.21F HX  81
OCONTO         NOT AVBL
STURGEON BAY   MOSUNNY   76  63  64 CALM      30.22F
GREEN BAY      MOSUNNY   76  65  68 VRB6      30.21F
MANITOWOC      PTSUNNY   75  64  68 E7        30.21F
APPLETON       PTSUNNY   75  61  60 VRB3      30.21S
CLINTONVILLE   SUNNY     77  59  53 CALM      30.20F
OSHKOSH        PTSUNNY   76  64  66 E5        30.21S
$$

WIZ032>034-041-042-053>061-282000-
SOUTHWEST WISCONSIN

CITY           SKY/WX    TMP DP  RH WIND       PRES   REMARKS
LA CROSSE      PTSUNNY   79  69  71 VRB5      30.17F HX  81
SPARTA         PTSUNNY   75  65  72 SE8       30.20F
VIROQUA        PTSUNNY   79  68  69 SE6       30.20F HX  81
BOSCOBEL       MOSUNNY   82  70  66 VRB6      30.18F HX  86
PRAIRIE DU CHI CLOUDY    82  68  61 SW5       30.17F HX  85
PLATTEVILLE    SUNNY     83  72  69 E5        30.19F HX  87
$$

WIZ056-057-062-063-064-067-068-282000-
SOUTH CENTRAL WISCONSIN

CITY           SKY/WX    TMP DP  RH WIND       PRES   REMARKS
REEDSBURG      NOT AVBL
BARABOO/DELLS  PTSUNNY   75  66  71 CALM      30.22F
LONE ROCK      PTSUNNY   76  69  79 NE3       30.20F
MINERAL POINT  PTSUNNY   81  68  65 CALM      30.20F HX  83
MADISON        PTSUNNY   77  67  71 N6        30.20F
MIDDLETON      MOSUNNY   78  68  72 E5        30.21F HX  80
WATERTOWN      SUNNY     77  69  77 CALM      30.20F
MONROE         PTSUNNY   82  68  61 NE3       30.18F HX  85
JANESVILLE     PTSUNNY   84  70  61 NE8       30.18F HX  88
$$

WIZ051-052-058>065-066-070>072-282000-
SOUTHEAST WISCONSIN

CITY           SKY/WX    TMP DP  RH WIND       PRES   REMARKS
MILWAUKEE      PTSUNNY   72  65  78 E8        30.21F
WAUKESHA       MOSUNNY   75  66  73 MISG      30.23S
MILWAUKEE/TIMM SUNNY     79  63  57 CALM      30.21F HX  80
RACINE         MOSUNNY   75  67  76 NE6       30.23F
BURLINGTON     MOSUNNY   79  68  69 E8        30.19F HX  81
KENOSHA        SUNNY     75  68  78 E7        30.21F
FOND DU LAC    PTSUNNY   78  66  66 NW3       30.20F HX  80
SHEBOYGAN      MOSUNNY   78  66  66 E9        30.20F HX  80
WEST BEND      SUNNY     79  64  61 CALM      30.20F HX  81
JUNEAU         SUNNY     73  66  79 CALM      30.23F
$$

LSZ147-162-282000-
LAKE SUPERIOR

STATION/POSITION TIME  TEMP    WIND        PRES    WAVE
                       AIR SEA DIR/SP/G            HT/PER
                 (UTC) (F)     (DEG/KT/KT) (MB)    (FT/S)
W MID LAKE BUOY  1850   66 68  240/  6/  6 1022.1R   1
DEVILS ISLAND    1900   65      20/  4/  4 1022.2F
PORT WING        1800   66     340/  4/  5 1022.0
SAXON HARBOR     1840   69      30/  5/  6 1022.0F
$$

LMZ867-665-643>646-282000-
LAKE MICHIGAN

STATION/POSITION TIME  TEMP    WIND        PRES    WAVE
                       AIR SEA DIR/SP/G            HT/PER
                 (UTC) (F)     (DEG/KT/KT) (MB)    (FT/S)
CHAMBERS ISLAND  1800   74     190/  4/  7 1022.7S
N MID LAKE BUOY  1850   69 71  230/  4/  6 1022.6R   1/ 3
NORTHPORT PIER   1800   72     340/  6/  6 1022.7S
SISTER BAY       1707   80        CALM       N/A
KEWAUNEE LAKESHO 1900   66     180/  5/  6 1022.6F
SHEBOYGAN LAKESH 1900   66     160/  9/  9 1022.5F
PORT WASHINGTON  1840   70     170/  6/  8 1023.7F
ATWATER BUOY     1900   68     130/  4/  4   N/A
MILWAUKEE LAKESH 1910   67     120/  5/  5   N/A
S MID LAKE BUOY  1850   72 75   40/ 10/ 10 1022.1F   1
KENOSHA   LAKESH 1900   66      20/  8/  9 1022.4F
$$

TC  - TEMPERATURE IN CELSIUS
VSB - VISIBILITY IN STATUTE MILES
WCI - WIND CHILL INDEX
HX  - HEAT INDEX





USA.gov is the U.S. government's official web portal to all federal, state and local government web resources and services.